User: anonymous   Login
Location: Boissi�res
(45.2500°N, 2.3667°E)
Time: 22:59:36
(UTC+00:00)
Language:

YAOGAN 1 - Orbit

View from above orbital plane
View from above orbital plane
View from above satellite
View from above satellite

Ground track
Ground track

The orbit data is extracted from the following two-line orbital elements,

1 29092U 06015A   21129.52049222  .00000089  00000-0  17348-4 0  9999
2 29092  97.9113 157.2794 0001465  91.8026 268.3355 14.83154716813061
Epoch (UTC): 09 May 2021 12:29:30
Eccentricity: 0.0001465
inclination: 97.9113°
perigee height: 618 km
apogee height: 620 km
right ascension of ascending node: 157.2794°
argument of perigee: 91.8026°
revolutions per day: 14.83154716
mean anomaly at epoch: 268.3355°
orbit number at epoch: 81306

The dashed part of the orbit path shows where the satellite is in the earth's shadow,  

DLR